Time,TemperatureF,DewpointF,PressureIn,WindDirection,WindDirectionDegrees,WindSpeedMPH,WindSpeedGustMPH,Humidity,HourlyPrecipIn,Conditions,Clouds,dailyrainin,SoftwareType,DateUTC
2013-08-27 00:00:00,81.3,63.1,30.06,NE,39,0.0,0.0,54,0.00,,,0.00,WeatherDisplay:10.36,2013-08-27 05:00:00,
2013-08-27 00:05:00,81.3,63.6,30.06,NE,41,0.0,0.0,55,0.00,,,0.00,WeatherDisplay:10.36,2013-08-27 05:05:00,
2013-08-27 00:10:00,81.1,63.4,30.06,NE,41,0.0,0.0,55,0.00,,,0.00,WeatherDisplay:10.36,2013-08-27 05:10:00,
2013-08-27 00:15:00,81.0,63.8,30.06,NE,41,0.0,0.0,56,0.00,,,0.00,WeatherDisplay:10.36,2013-08-27 05:15:00,
2013-08-27 00:20:00,80.8,63.6,30.06,NE,40,0.0,0.0,56,0.00,,,0.00,WeatherDisplay:10.36,2013-08-27 05:20:00,
2013-08-27 00:25:00,80.6,64.0,30.06,NE,40,0.0,0.0,57,0.00,,,0.00,WeatherDisplay:10.36,2013-08-27 05:25:00,
2013-08-27 00:30:00,80.6,64.0,30.06,NE,41,0.0,0.0,57,0.00,,,0.00,WeatherDisplay:10.36,2013-08-27 05:30:00,
2013-08-27 00:35:00,80.4,64.3,30.06,NE,40,0.0,0.0,58,0.00,,,0.00,WeatherDisplay:10.36,2013-08-27 05:35:00,
2013-08-27 00:40:00,80.2,64.1,30.06,NE,40,0.0,0.0,58,0.00,,,0.00,WeatherDisplay:10.36,2013-08-27 05:40:00,
2013-08-27 00:45:00,80.1,64.0,30.06,NE,40,0.0,0.0,58,0.00,,,0.00,WeatherDisplay:10.36,2013-08-27 05:45:00,
2013-08-27 00:50:00,80.1,64.4,30.06,NE,42,0.0,0.0,59,0.00,,,0.00,WeatherDisplay:10.36,2013-08-27 05:50:00,
2013-08-27 00:55:00,79.9,64.3,30.06,NE,40,3.6,0.0,59,0.00,,,0.00,WeatherDisplay:10.36,2013-08-27 05:55:00,
2013-08-27 01:00:00,79.7,64.6,30.06,NE,40,4.6,4.6,60,0.00,,,0.00,WeatherDisplay:10.36,2013-08-27 06:00:00,
2013-08-27 01:05:00,79.5,64.4,30.03,NE,41,0.0,0.0,60,0.00,,,0.00,WeatherDisplay:10.36,2013-08-27 06:05:00,
2013-08-27 01:10:00,79.5,64.9,30.03,NE,40,3.6,0.0,61,0.00,,,0.00,WeatherDisplay:10.36,2013-08-27 06:10:00,
2013-08-27 01:15:00,79.3,64.7,30.03,NE,39,0.0,0.0,61,0.00,,,0.00,WeatherDisplay:10.36,2013-08-27 06:15:00,
2013-08-27 01:20:00,79.3,64.7,30.03,NE,41,0.0,0.0,61,0.00,,,0.00,WeatherDisplay:10.36,2013-08-27 06:20:00,
2013-08-27 01:25:00,79.2,65.0,30.03,NE,40,0.0,0.0,62,0.00,,,0.00,WeatherDisplay:10.36,2013-08-27 06:25:00,
2013-08-27 01:30:00,79.0,64.8,30.03,NE,39,2.7,0.0,62,0.00,,,0.00,WeatherDisplay:10.36,2013-08-27 06:30:00,
2013-08-27 01:35:00,79.0,64.8,30.03,NE,43,0.0,0.0,62,0.00,,,0.00,WeatherDisplay:10.36,2013-08-27 06:35:00,
2013-08-27 01:40:00,78.8,65.1,30.03,NE,39,3.5,3.5,63,0.00,,,0.00,WeatherDisplay:10.36,2013-08-27 06:40:00,
2013-08-27 01:45:00,78.6,65.0,30.03,NE,39,0.0,0.0,63,0.00,,,0.00,WeatherDisplay:10.36,2013-08-27 06:45:00,
2013-08-27 01:50:00,78.4,64.8,30.03,NE,41,4.9,0.0,63,0.00,,,0.00,WeatherDisplay:10.36,2013-08-27 06:50:00,
2013-08-27 01:55:00,78.4,65.2,30.03,NE,40,5.8,0.0,64,0.00,,,0.00,WeatherDisplay:10.36,2013-08-27 06:55:00,
2013-08-27 02:00:00,78.3,65.1,30.03,NE,39,3.5,0.0,64,0.00,,,0.00,WeatherDisplay:10.36,2013-08-27 07:00:00,
2013-08-27 02:05:00,78.3,65.1,30.03,NE,38,0.0,0.0,64,0.00,,,0.00,WeatherDisplay:10.36,2013-08-27 07:05:00,
2013-08-27 02:10:00,78.1,65.4,30.03,NE,40,4.6,4.6,65,0.00,,,0.00,WeatherDisplay:10.36,2013-08-27 07:10:00,
2013-08-27 02:15:00,78.1,65.4,30.03,NE,41,4.6,4.6,65,0.00,,,0.00,WeatherDisplay:10.36,2013-08-27 07:15:00,
2013-08-27 02:20:00,77.9,65.2,30.03,NE,41,3.6,0.0,65,0.00,,,0.00,WeatherDisplay:10.36,2013-08-27 07:20:00,
2013-08-27 02:25:00,77.7,65.5,30.03,NE,43,3.6,0.0,66,0.00,,,0.00,WeatherDisplay:10.36,2013-08-27 07:25:00,
2013-08-27 02:30:00,77.7,65.5,30.03,NE,39,4.0,0.0,66,0.00,,,0.00,WeatherDisplay:10.36,2013-08-27 07:30:00,
2013-08-27 02:35:00,77.5,65.3,30.03,NE,39,0.0,0.0,66,0.00,,,0.00,WeatherDisplay:10.36,2013-08-27 07:35:00,
2013-08-27 02:40:00,77.5,65.3,30.03,NE,39,0.0,0.0,66,0.00,,,0.00,WeatherDisplay:10.36,2013-08-27 07:40:00,
2013-08-27 02:45:00,77.4,65.5,30.03,NE,43,2.3,0.0,67,0.00,,,0.00,WeatherDisplay:10.36,2013-08-27 07:45:00,
2013-08-27 02:50:00,77.4,65.5,30.03,NE,41,3.5,0.0,67,0.00,,,0.00,WeatherDisplay:10.36,2013-08-27 07:50:00,
2013-08-27 02:55:00,77.4,65.5,30.03,NE,40,3.5,0.0,67,0.00,,,0.00,WeatherDisplay:10.36,2013-08-27 07:55:00,
2013-08-27 03:00:00,77.4,66.0,30.03,NE,39,0.0,0.0,68,0.00,,,0.00,WeatherDisplay:10.36,2013-08-27 08:00:00,
2013-08-27 03:05:00,77.2,65.8,30.03,NE,39,0.0,0.0,68,0.00,,,0.00,WeatherDisplay:10.36,2013-08-27 08:05:00,
2013-08-27 03:10:00,77.2,65.8,30.03,NE,39,4.6,0.0,68,0.00,,,0.00,WeatherDisplay:10.36,2013-08-27 08:10:00,
2013-08-27 03:15:00,77.2,65.8,30.03,NE,39,0.0,0.0,68,0.00,,,0.00,WeatherDisplay:10.36,2013-08-27 08:15:00,
2013-08-27 03:20:00,77.0,65.6,30.03,NE,39,3.6,0.0,68,0.00,,,0.00,WeatherDisplay:10.36,2013-08-27 08:20:00,
2013-08-27 03:25:00,77.0,65.6,30.03,NE,41,4.0,0.0,68,0.00,,,0.00,WeatherDisplay:10.36,2013-08-27 08:25:00,
2013-08-27 03:30:00,76.8,65.9,30.03,NE,43,3.5,0.0,69,0.00,,,0.00,WeatherDisplay:10.36,2013-08-27 08:30:00,
2013-08-27 03:35:00,76.6,65.7,30.03,NE,40,3.5,0.0,69,0.00,,,0.00,WeatherDisplay:10.36,2013-08-27 08:35:00,
2013-08-27 03:40:00,76.6,65.7,30.03,NE,40,3.5,0.0,69,0.00,,,0.00,WeatherDisplay:10.36,2013-08-27 08:40:00,
2013-08-27 03:45:00,76.5,65.5,30.03,NE,41,3.5,0.0,69,0.00,,,0.00,WeatherDisplay:10.36,2013-08-27 08:45:00,
2013-08-27 03:50:00,76.5,65.9,30.03,NE,40,4.9,0.0,70,0.00,,,0.00,WeatherDisplay:10.36,2013-08-27 08:50:00,
2013-08-27 03:55:00,76.5,65.9,30.03,NE,41,0.0,0.0,70,0.00,,,0.00,WeatherDisplay:10.36,2013-08-27 08:55:00,
2013-08-27 04:00:00,76.3,65.8,30.03,NE,41,4.6,4.6,70,0.00,,,0.00,WeatherDisplay:10.36,2013-08-27 09:00:00,
2013-08-27 04:05:00,76.3,65.8,30.03,NE,39,3.1,0.0,70,0.00,,,0.00,WeatherDisplay:10.36,2013-08-27 09:05:00,
2013-08-27 04:10:00,76.1,66.0,30.03,NE,40,3.6,3.6,71,0.00,,,0.00,WeatherDisplay:10.36,2013-08-27 09:10:00,
2013-08-27 04:15:00,76.1,66.0,30.03,NE,39,3.5,3.5,71,0.00,,,0.00,WeatherDisplay:10.36,2013-08-27 09:15:00,
2013-08-27 04:20:00,75.9,66.2,30.03,NE,39,4.9,4.9,72,0.00,,,0.00,WeatherDisplay:10.36,2013-08-27 09:20:00,
2013-08-27 04:25:00,75.9,66.2,30.03,NE,40,4.0,4.0,72,0.00,,,0.00,WeatherDisplay:10.36,2013-08-27 09:25:00,
2013-08-27 04:30:00,75.9,66.2,30.03,NE,35,5.8,5.8,72,0.00,,,0.00,WeatherDisplay:10.36,2013-08-27 09:30:00,
2013-08-27 04:35:00,75.7,66.1,30.03,NE,43,4.9,4.9,72,0.00,,,0.00,WeatherDisplay:10.36,2013-08-27 09:35:00,
2013-08-27 04:40:00,75.7,66.5,30.03,NE,40,5.8,5.8,73,0.00,,,0.00,WeatherDisplay:10.36,2013-08-27 09:40:00,
2013-08-27 04:45:00,75.7,66.5,30.03,NE,38,4.6,4.6,73,0.00,,,0.00,WeatherDisplay:10.36,2013-08-27 09:45:00,
2013-08-27 04:50:00,75.6,66.3,30.03,NE,41,5.8,5.8,73,0.00,,,0.00,WeatherDisplay:10.36,2013-08-27 09:50:00,
2013-08-27 04:55:00,75.6,66.3,30.03,NE,42,5.8,5.8,73,0.00,,,0.00,WeatherDisplay:10.36,2013-08-27 09:55:00,
2013-08-27 05:00:00,75.6,66.3,30.03,NE,41,5.8,5.8,73,0.00,,,0.00,WeatherDisplay:10.36,2013-08-27 10:00:00,
2013-08-27 05:05:00,75.4,66.1,30.03,NE,40,5.8,0.0,73,0.00,,,0.00,WeatherDisplay:10.36,2013-08-27 10:05:00,
2013-08-27 05:10:00,75.4,66.5,30.03,NE,41,0.0,0.0,74,0.00,,,0.00,WeatherDisplay:10.36,2013-08-27 10:10:00,
2013-08-27 05:15:00,75.4,66.5,30.03,NE,39,0.0,0.0,74,0.00,,,0.00,WeatherDisplay:10.36,2013-08-27 10:15:00,
2013-08-27 05:21:00,75.4,66.5,30.03,NE,39,0.0,0.0,74,0.00,,,0.00,WeatherDisplay:10.36,2013-08-27 10:21:00,
2013-08-27 05:27:00,75.6,67.1,30.03,NE,40,4.6,4.6,75,0.00,,,0.00,WeatherDisplay:10.36,2013-08-27 10:27:00,
2013-08-27 05:33:00,75.6,67.1,30.03,NE,38,6.3,6.3,75,0.00,,,0.00,WeatherDisplay:10.36,2013-08-27 10:33:00,
2013-08-27 05:38:00,75.6,67.5,30.03,NE,41,5.8,5.8,76,0.00,,,0.00,WeatherDisplay:10.36,2013-08-27 10:38:00,
2013-08-27 05:43:00,75.6,67.1,30.03,NE,39,3.1,0.0,75,0.00,,,0.00,WeatherDisplay:10.36,2013-08-27 10:43:00,
2013-08-27 05:48:00,75.4,66.9,30.03,NE,43,3.6,3.6,75,0.00,,,0.00,WeatherDisplay:10.36,2013-08-27 10:48:00,
2013-08-27 05:53:00,75.2,66.7,30.03,NE,38,5.4,0.0,75,0.00,,,0.00,WeatherDisplay:10.36,2013-08-27 10:53:00,
2013-08-27 05:58:00,75.2,66.7,30.03,NE,41,4.5,4.5,75,0.00,,,0.00,WeatherDisplay:10.36,2013-08-27 10:58:00,
2013-08-27 06:03:00,75.0,66.6,30.03,NE,39,2.7,3.6,75,0.00,,,0.00,WeatherDisplay:10.36,2013-08-27 11:03:00,
2013-08-27 06:08:00,74.8,66.4,30.03,NE,40,5.8,5.8,75,0.00,,,0.00,WeatherDisplay:10.36,2013-08-27 11:08:00,
2013-08-27 06:14:00,74.7,66.2,30.03,NE,39,5.8,5.8,75,0.00,,,0.00,WeatherDisplay:10.36,2013-08-27 11:14:00,
2013-08-27 06:19:00,74.7,66.2,30.03,NE,41,4.0,0.0,75,0.00,,,0.00,WeatherDisplay:10.36,2013-08-27 11:19:00,
2013-08-27 06:24:00,74.5,66.0,30.03,NE,40,0.0,0.0,75,0.00,,,0.00,WeatherDisplay:10.36,2013-08-27 11:24:00,
2013-08-27 06:30:00,74.3,66.2,30.03,NE,41,3.6,0.0,76,0.00,,,0.00,WeatherDisplay:10.36,2013-08-27 11:30:00,
2013-08-27 06:35:00,74.3,66.2,30.03,NE,41,3.5,0.0,76,0.00,,,0.00,WeatherDisplay:10.36,2013-08-27 11:35:00,
2013-08-27 06:40:00,74.1,66.1,30.03,NE,41,3.6,0.0,76,0.00,,,0.00,WeatherDisplay:10.36,2013-08-27 11:40:00,
2013-08-27 06:45:00,74.1,66.4,30.03,NE,39,3.5,3.5,77,0.00,,,0.00,WeatherDisplay:10.36,2013-08-27 11:45:00,
2013-08-27 06:50:00,74.1,66.4,30.03,NE,41,3.5,0.0,77,0.00,,,0.00,WeatherDisplay:10.36,2013-08-27 11:50:00,
2013-08-27 06:55:00,74.1,66.4,30.03,NE,40,5.8,5.8,77,0.00,,,0.00,WeatherDisplay:10.36,2013-08-27 11:55:00,
2013-08-27 07:00:00,74.1,66.8,30.03,NE,39,4.9,4.9,78,0.00,,,0.00,WeatherDisplay:10.36,2013-08-27 12:00:00,
2013-08-27 07:06:00,74.1,66.8,30.06,NE,41,3.5,0.0,78,0.00,,,0.00,WeatherDisplay:10.36,2013-08-27 12:06:00,
2013-08-27 07:11:00,74.1,66.8,30.06,NE,41,4.6,0.0,78,0.00,,,0.00,WeatherDisplay:10.36,2013-08-27 12:11:00,
2013-08-27 07:16:00,74.3,67.0,30.06,NE,41,3.5,0.0,78,0.00,,,0.00,WeatherDisplay:10.36,2013-08-27 12:16:00,
2013-08-27 07:21:00,74.3,67.0,30.06,NE,41,0.0,0.0,78,0.00,,,0.00,WeatherDisplay:10.36,2013-08-27 12:21:00,
2013-08-27 07:26:00,74.5,67.2,30.06,NE,39,5.8,0.0,78,0.00,,,0.00,WeatherDisplay:10.36,2013-08-27 12:26:00,
2013-08-27 07:31:00,74.5,67.2,30.06,NE,38,4.0,0.0,78,0.00,,,0.00,WeatherDisplay:10.36,2013-08-27 12:31:00,
2013-08-27 07:36:00,74.7,67.3,30.06,NE,38,3.6,0.0,78,0.00,,,0.00,WeatherDisplay:10.36,2013-08-27 12:36:00,
2013-08-27 07:41:00,74.8,67.9,30.06,NE,40,6.3,6.3,79,0.00,,,0.00,WeatherDisplay:10.36,2013-08-27 12:41:00,
2013-08-27 07:46:00,75.0,68.1,30.06,NE,39,4.9,4.9,79,0.00,,,0.00,WeatherDisplay:10.36,2013-08-27 12:46:00,
2013-08-27 07:51:00,75.4,68.4,30.06,NE,39,6.9,6.9,79,0.00,,,0.00,WeatherDisplay:10.36,2013-08-27 12:51:00,
2013-08-27 07:56:00,75.7,68.8,30.06,NE,40,3.5,3.5,79,0.00,,,0.00,WeatherDisplay:10.36,2013-08-27 12:56:00,
2013-08-27 08:01:00,76.1,68.7,30.06,NE,42,5.4,5.4,78,0.00,,,0.00,WeatherDisplay:10.36,2013-08-27 13:01:00,
2013-08-27 08:06:00,76.3,68.9,30.06,NE,43,8.1,8.1,78,0.00,,,0.00,WeatherDisplay:10.36,2013-08-27 13:06:00,
2013-08-27 08:11:00,76.6,68.9,30.06,NE,39,5.8,5.8,77,0.00,,,0.00,WeatherDisplay:10.36,2013-08-27 13:11:00,
2013-08-27 08:16:00,77.0,68.9,30.06,NE,37,4.0,4.0,76,0.00,,,0.00,WeatherDisplay:10.36,2013-08-27 13:16:00,
2013-08-27 08:21:00,77.2,69.0,30.06,NE,41,4.9,0.0,76,0.00,,,0.00,WeatherDisplay:10.36,2013-08-27 13:21:00,
2013-08-27 08:26:00,77.4,68.8,30.06,NE,40,6.3,6.3,75,0.00,,,0.00,WeatherDisplay:10.36,2013-08-27 13:26:00,
2013-08-27 08:31:00,77.5,68.2,30.06,NE,41,4.6,4.6,73,0.00,,,0.00,WeatherDisplay:10.36,2013-08-27 13:31:00,
2013-08-27 08:36:00,77.9,68.1,30.06,NE,43,4.0,4.0,72,0.00,,,0.00,WeatherDisplay:10.36,2013-08-27 13:36:00,
2013-08-27 08:42:00,78.1,67.5,30.06,NE,41,3.5,0.0,70,0.00,,,0.00,WeatherDisplay:10.36,2013-08-27 13:42:00,
2013-08-27 08:47:00,78.3,67.7,30.06,NE,38,0.0,4.9,70,0.00,,,0.00,WeatherDisplay:10.36,2013-08-27 13:47:00,
2013-08-27 08:52:00,78.6,67.6,30.06,NE,41,4.0,4.0,69,0.00,,,0.00,WeatherDisplay:10.36,2013-08-27 13:52:00,
2013-08-27 08:57:00,78.8,67.3,30.06,NE,40,5.8,5.8,68,0.00,,,0.00,WeatherDisplay:10.36,2013-08-27 13:57:00,
2013-08-27 09:02:00,79.0,67.5,30.06,NE,42,4.0,4.5,68,0.00,,,0.00,WeatherDisplay:10.36,2013-08-27 14:02:00,
2013-08-27 09:07:00,79.3,67.4,30.06,NE,42,4.9,4.9,67,0.00,,,0.00,WeatherDisplay:10.36,2013-08-27 14:07:00,
2013-08-27 09:12:00,79.7,67.3,30.06,NE,43,4.9,4.9,66,0.00,,,0.00,WeatherDisplay:10.36,2013-08-27 14:12:00,
2013-08-27 09:17:00,80.1,67.2,30.06,NE,39,0.0,2.7,65,0.00,,,0.00,WeatherDisplay:10.36,2013-08-27 14:17:00,
2013-08-27 09:22:00,80.2,66.5,30.06,NE,42,4.5,4.5,63,0.00,,,0.00,WeatherDisplay:10.36,2013-08-27 14:22:00,
2013-08-27 09:27:00,80.6,66.4,30.06,NE,38,5.8,0.0,62,0.00,,,0.00,WeatherDisplay:10.36,2013-08-27 14:27:00,
2013-08-27 09:32:00,81.0,66.2,30.06,NE,42,4.5,4.5,61,0.00,,,0.00,WeatherDisplay:10.36,2013-08-27 14:32:00,
2013-08-27 09:37:00,81.3,66.1,30.06,NE,40,6.3,6.3,60,0.00,,,0.00,WeatherDisplay:10.36,2013-08-27 14:37:00,
2013-08-27 09:42:00,81.7,63.9,30.06,NE,42,6.3,6.3,55,0.00,,,0.00,WeatherDisplay:10.36,2013-08-27 14:42:00,
2013-08-27 09:47:00,81.9,63.6,30.06,NE,37,3.1,3.1,54,0.00,,,0.00,WeatherDisplay:10.36,2013-08-27 14:47:00,
2013-08-27 09:52:00,82.2,63.4,30.06,NE,43,7.4,7.4,53,0.00,,,0.00,WeatherDisplay:10.36,2013-08-27 14:52:00,
2013-08-27 09:57:00,82.6,63.2,30.06,NE,39,5.8,5.8,52,0.00,,,0.00,WeatherDisplay:10.36,2013-08-27 14:57:00,
2013-08-27 10:02:00,82.8,62.2,30.06,NE,42,0.0,4.5,50,0.00,,,0.00,WeatherDisplay:10.36,2013-08-27 15:02:00,
2013-08-27 10:07:00,83.1,62.0,30.06,NE,38,8.7,8.7,49,0.00,,,0.00,WeatherDisplay:10.36,2013-08-27 15:07:00,
2013-08-27 10:12:00,83.5,61.7,30.06,NE,42,5.4,5.4,48,0.00,,,0.00,WeatherDisplay:10.36,2013-08-27 15:12:00,
2013-08-27 10:17:00,83.8,61.5,30.06,NE,42,5.8,5.8,47,0.00,,,0.00,WeatherDisplay:10.36,2013-08-27 15:17:00,
2013-08-27 10:22:00,84.2,61.2,30.06,NE,39,5.4,5.4,46,0.00,,,0.00,WeatherDisplay:10.36,2013-08-27 15:22:00,
2013-08-27 10:27:00,84.6,61.5,30.06,NE,43,6.9,6.9,46,0.00,,,0.00,WeatherDisplay:10.36,2013-08-27 15:27:00,
2013-08-27 10:32:00,84.9,60.6,30.06,NE,42,6.3,6.3,44,0.00,,,0.00,WeatherDisplay:10.36,2013-08-27 15:32:00,
2013-08-27 10:37:00,85.3,59.6,30.06,NE,41,5.4,6.3,42,0.00,,,0.00,WeatherDisplay:10.36,2013-08-27 15:37:00,
2013-08-27 10:42:00,85.5,59.8,30.06,NE,37,5.8,5.8,42,0.00,,,0.00,WeatherDisplay:10.36,2013-08-27 15:42:00,
2013-08-27 10:47:00,85.8,59.4,30.06,NE,39,5.8,5.8,41,0.00,,,0.00,WeatherDisplay:10.36,2013-08-27 15:47:00,
2013-08-27 10:52:00,86.2,59.7,30.06,NE,42,6.9,6.9,41,0.00,,,0.00,WeatherDisplay:10.36,2013-08-27 15:52:00,
2013-08-27 10:57:00,86.5,59.3,30.06,NE,41,5.8,5.8,40,0.00,,,0.00,WeatherDisplay:10.36,2013-08-27 15:57:00,
2013-08-27 11:02:00,86.7,59.5,30.06,NE,43,4.9,4.9,40,0.00,,,0.00,WeatherDisplay:10.36,2013-08-27 16:02:00,
2013-08-27 11:07:00,87.1,59.8,30.06,NE,35,4.6,4.6,40,0.00,,,0.00,WeatherDisplay:10.36,2013-08-27 16:07:00,
2013-08-27 11:12:00,87.3,59.3,30.06,NE,43,8.7,8.7,39,0.00,,,0.00,WeatherDisplay:10.36,2013-08-27 16:12:00,
2013-08-27 11:17:00,87.6,58.9,30.06,NE,42,0.0,4.9,38,0.00,,,0.00,WeatherDisplay:10.36,2013-08-27 16:17:00,
2013-08-27 11:22:00,87.8,59.0,30.03,NE,43,4.9,4.9,38,0.00,,,0.00,WeatherDisplay:10.36,2013-08-27 16:22:00,
2013-08-27 11:27:00,88.0,59.2,30.03,NE,40,4.5,4.5,38,0.00,,,0.00,WeatherDisplay:10.36,2013-08-27 16:27:00,
2013-08-27 11:32:00,88.2,59.4,30.03,NE,42,8.1,8.1,38,0.00,,,0.00,WeatherDisplay:10.36,2013-08-27 16:32:00,
2013-08-27 11:37:00,88.5,59.7,30.03,NE,40,7.4,7.4,38,0.00,,,0.00,WeatherDisplay:10.36,2013-08-27 16:37:00,
2013-08-27 11:42:00,88.5,58.2,30.03,NE,40,8.7,8.7,36,0.00,,,0.00,WeatherDisplay:10.36,2013-08-27 16:42:00,
2013-08-27 11:47:00,88.7,57.5,30.03,NE,42,4.5,4.5,35,0.00,,,0.00,WeatherDisplay:10.36,2013-08-27 16:47:00,
2013-08-27 11:52:00,88.7,56.7,30.03,NE,37,5.8,5.8,34,0.00,,,0.00,WeatherDisplay:10.36,2013-08-27 16:52:00,
2013-08-27 11:57:00,88.9,56.9,30.03,NE,42,9.2,9.2,34,0.00,,,0.00,WeatherDisplay:10.36,2013-08-27 16:57:00,
2013-08-27 12:02:00,89.1,56.2,30.03,NE,43,6.9,6.9,33,0.00,,,0.00,WeatherDisplay:10.36,2013-08-27 17:02:00,
2013-08-27 12:07:00,89.2,56.4,30.03,NE,41,3.6,3.6,33,0.00,,,0.00,WeatherDisplay:10.36,2013-08-27 17:07:00,
2013-08-27 12:12:00,89.6,57.5,30.03,NE,42,4.9,5.4,34,0.00,,,0.00,WeatherDisplay:10.36,2013-08-27 17:12:00,
2013-08-27 12:17:00,89.8,56.0,30.03,NE,38,3.6,3.6,32,0.00,,,0.00,WeatherDisplay:10.36,2013-08-27 17:17:00,
2013-08-27 12:22:00,90.0,56.1,30.03,NE,42,5.8,5.8,32,0.00,,,0.00,WeatherDisplay:10.36,2013-08-27 17:22:00,
2013-08-27 12:27:00,90.1,55.4,30.03,NE,42,4.9,5.8,31,0.00,,,0.00,WeatherDisplay:10.36,2013-08-27 17:27:00,
2013-08-27 12:32:00,90.1,56.3,30.03,NE,42,5.8,5.8,32,0.00,,,0.00,WeatherDisplay:10.36,2013-08-27 17:32:00,
2013-08-27 12:37:00,90.3,56.5,30.03,NE,39,5.4,5.4,32,0.00,,,0.00,WeatherDisplay:10.36,2013-08-27 17:37:00,
2013-08-27 12:42:00,90.7,56.8,30.03,NE,39,6.3,6.3,32,0.00,,,0.00,WeatherDisplay:10.36,2013-08-27 17:42:00,
2013-08-27 12:47:00,91.0,55.3,30.00,NE,41,0.0,3.6,30,0.00,,,0.00,WeatherDisplay:10.36,2013-08-27 17:47:00,
2013-08-27 12:52:00,91.2,55.5,30.00,NNE,33,4.5,4.5,30,0.00,,,0.00,WeatherDisplay:10.36,2013-08-27 17:52:00,
2013-08-27 12:57:00,91.4,54.7,30.00,NE,42,6.3,6.3,29,0.00,,,0.00,WeatherDisplay:10.36,2013-08-27 17:57:00,
2013-08-27 13:02:00,91.6,54.8,30.00,NE,42,5.4,5.4,29,0.00,,,0.00,WeatherDisplay:10.36,2013-08-27 18:02:00,
2013-08-27 13:07:00,91.8,55.0,30.00,NE,43,4.9,4.9,29,0.00,,,0.00,WeatherDisplay:10.36,2013-08-27 18:07:00,
2013-08-27 13:12:00,91.9,54.2,30.00,North,351,4.5,4.5,28,0.00,,,0.00,WeatherDisplay:10.36,2013-08-27 18:12:00,
2013-08-27 13:17:00,91.9,54.2,30.00,NE,38,8.1,8.1,28,0.00,,,0.00,WeatherDisplay:10.36,2013-08-27 18:17:00,
2013-08-27 13:22:00,92.1,54.3,30.00,NE,39,6.7,6.7,28,0.00,,,0.00,WeatherDisplay:10.36,2013-08-27 18:22:00,
2013-08-27 13:27:00,92.1,54.3,30.00,NE,39,0.0,3.6,28,0.00,,,0.00,WeatherDisplay:10.36,2013-08-27 18:27:00,
2013-08-27 13:32:00,92.3,54.5,30.00,NE,41,4.5,4.5,28,0.00,,,0.00,WeatherDisplay:10.36,2013-08-27 18:32:00,
2013-08-27 13:37:00,92.5,54.6,30.00,NE,38,4.5,4.5,28,0.00,,,0.00,WeatherDisplay:10.36,2013-08-27 18:37:00,
2013-08-27 13:42:00,92.7,53.8,30.00,NE,41,4.0,5.8,27,0.00,,,0.00,WeatherDisplay:10.36,2013-08-27 18:42:00,
2013-08-27 13:47:00,92.8,53.9,30.00,NE,38,5.4,5.4,27,0.00,,,0.00,WeatherDisplay:10.36,2013-08-27 18:47:00,
2013-08-27 13:52:00,93.0,54.1,30.00,NE,38,7.4,7.4,27,0.00,,,0.00,WeatherDisplay:10.36,2013-08-27 18:52:00,
2013-08-27 13:57:00,93.4,54.4,30.00,NE,35,4.0,4.5,27,0.00,,,0.00,WeatherDisplay:10.36,2013-08-27 18:57:00,
2013-08-27 14:02:00,93.4,54.4,30.00,NE,42,5.8,5.8,27,0.00,,,0.00,WeatherDisplay:10.36,2013-08-27 19:02:00,
2013-08-27 14:07:00,93.4,54.4,30.00,NE,40,6.9,6.9,27,0.00,,,0.00,WeatherDisplay:10.36,2013-08-27 19:07:00,
2013-08-27 14:12:00,93.4,54.4,30.00,NE,41,4.6,0.0,27,0.00,,,0.00,WeatherDisplay:10.36,2013-08-27 19:12:00,
2013-08-27 14:17:00,93.7,54.7,29.97,NE,38,4.5,4.5,27,0.00,,,0.00,WeatherDisplay:10.36,2013-08-27 19:17:00,
2013-08-27 14:22:00,93.9,54.9,29.97,NE,39,0.0,4.9,27,0.00,,,0.00,WeatherDisplay:10.36,2013-08-27 19:22:00,
2013-08-27 14:27:00,94.1,54.0,29.97,NE,42,7.8,0.0,26,0.00,,,0.00,WeatherDisplay:10.36,2013-08-27 19:27:00,
2013-08-27 14:32:00,94.1,50.6,29.97,NE,35,6.3,6.3,23,0.00,,,0.00,WeatherDisplay:10.36,2013-08-27 19:32:00,
2013-08-27 14:37:00,94.1,49.4,29.97,NE,41,10.1,10.1,22,0.00,,,0.00,WeatherDisplay:10.36,2013-08-27 19:37:00,
2013-08-27 14:42:00,94.1,49.4,29.97,NE,38,4.5,4.5,22,0.00,,,0.00,WeatherDisplay:10.36,2013-08-27 19:42:00,
2013-08-27 14:47:00,94.3,50.8,29.97,NE,38,9.2,9.2,23,0.00,,,0.00,WeatherDisplay:10.36,2013-08-27 19:47:00,
2013-08-27 14:52:00,94.3,51.9,29.97,NE,37,7.4,7.4,24,0.00,,,0.00,WeatherDisplay:10.36,2013-08-27 19:52:00,
2013-08-27 14:57:00,94.5,50.9,29.97,NE,39,6.7,6.7,23,0.00,,,0.00,WeatherDisplay:10.36,2013-08-27 19:57:00,
2013-08-27 15:02:00,94.5,48.5,29.97,NE,41,6.9,6.9,21,0.00,,,0.00,WeatherDisplay:10.36,2013-08-27 20:02:00,
2013-08-27 15:07:00,94.6,48.6,29.97,NE,38,5.4,5.4,21,0.00,,,0.00,WeatherDisplay:10.36,2013-08-27 20:07:00,
2013-08-27 15:12:00,94.5,48.5,29.97,NE,37,6.7,6.7,21,0.00,,,0.00,WeatherDisplay:10.36,2013-08-27 20:12:00,
2013-08-27 15:17:00,94.5,48.5,29.97,NE,39,5.8,5.8,21,0.00,,,0.00,WeatherDisplay:10.36,2013-08-27 20:17:00,
2013-08-27 15:22:00,94.6,49.9,29.97,NE,36,5.8,5.8,22,0.00,,,0.00,WeatherDisplay:10.36,2013-08-27 20:22:00,
2013-08-27 15:27:00,94.8,50.0,29.97,NE,38,7.8,7.8,22,0.00,,,0.00,WeatherDisplay:10.36,2013-08-27 20:27:00,
2013-08-27 15:32:00,94.6,48.6,29.97,NE,42,11.5,11.5,21,0.00,,,0.00,WeatherDisplay:10.36,2013-08-27 20:32:00,
2013-08-27 15:37:00,94.6,49.9,29.97,NE,38,6.7,6.7,22,0.00,,,0.00,WeatherDisplay:10.36,2013-08-27 20:37:00,
2013-08-27 15:42:00,94.5,48.5,29.97,NE,39,6.9,6.9,21,0.00,,,0.00,WeatherDisplay:10.36,2013-08-27 20:42:00,
2013-08-27 15:47:00,94.3,47.0,29.94,NE,38,6.7,6.7,20,0.00,,,0.00,WeatherDisplay:10.36,2013-08-27 20:47:00,
2013-08-27 15:52:00,94.1,46.9,29.94,NE,37,0.0,7.4,20,0.00,,,0.00,WeatherDisplay:10.36,2013-08-27 20:52:00,
2013-08-27 15:57:00,93.9,46.8,29.94,NE,39,5.8,5.8,20,0.00,,,0.00,WeatherDisplay:10.36,2013-08-27 20:57:00,
2013-08-27 16:02:00,93.9,46.8,29.97,NE,42,5.4,5.8,20,0.00,,,0.00,WeatherDisplay:10.36,2013-08-27 21:02:00,
2013-08-27 16:07:00,93.9,46.8,29.97,NE,40,5.8,5.8,20,0.00,,,0.00,WeatherDisplay:10.36,2013-08-27 21:07:00,
2013-08-27 16:30:00,93.7,47.9,29.97,NE,41,8.1,8.1,21,0.00,,,0.00,WeatherDisplay:10.36,2013-08-27 21:30:00,
2013-08-27 16:38:00,93.6,46.5,29.94,NE,40,4.0,4.0,20,0.00,,,0.00,WeatherDisplay:10.36,2013-08-27 21:38:00,
2013-08-27 16:47:00,93.7,43.8,29.94,NE,41,6.9,6.9,18,0.00,,,0.00,WeatherDisplay:10.36,2013-08-27 21:47:00,
2013-08-27 16:52:00,93.7,43.8,29.94,NE,39,7.8,7.8,18,0.00,,,0.00,WeatherDisplay:10.36,2013-08-27 21:52:00,
2013-08-27 16:57:00,93.6,43.7,29.94,NE,41,5.4,5.4,18,0.00,,,0.00,WeatherDisplay:10.36,2013-08-27 21:57:00,
2013-08-27 17:02:00,93.6,43.7,29.94,NE,38,5.8,5.8,18,0.00,,,0.00,WeatherDisplay:10.36,2013-08-27 22:02:00,
2013-08-27 17:07:00,93.6,43.7,29.94,NE,42,7.8,7.8,18,0.00,,,0.00,WeatherDisplay:10.36,2013-08-27 22:07:00,
2013-08-27 17:12:00,93.4,43.5,29.94,NE,42,4.6,4.6,18,0.00,,,0.00,WeatherDisplay:10.36,2013-08-27 22:12:00,
2013-08-27 17:17:00,93.4,43.5,29.94,NE,42,4.0,4.0,18,0.00,,,0.00,WeatherDisplay:10.36,2013-08-27 22:17:00,
2013-08-27 17:22:00,93.4,43.5,29.94,NE,42,6.7,6.7,18,0.00,,,0.00,WeatherDisplay:10.36,2013-08-27 22:22:00,
2013-08-27 17:27:00,93.4,43.5,29.94,NE,38,7.4,7.4,18,0.00,,,0.00,WeatherDisplay:10.36,2013-08-27 22:27:00,
2013-08-27 17:32:00,93.2,43.4,29.94,NE,41,2.7,4.9,18,0.00,,,0.00,WeatherDisplay:10.36,2013-08-27 22:32:00,
2013-08-27 17:37:00,93.2,44.8,29.94,NE,41,5.4,5.4,19,0.00,,,0.00,WeatherDisplay:10.36,2013-08-27 22:37:00,
2013-08-27 17:42:00,93.0,44.7,29.94,NE,41,4.0,4.0,19,0.00,,,0.00,WeatherDisplay:10.36,2013-08-27 22:42:00,
2013-08-27 17:47:00,93.0,44.7,29.94,NE,42,5.4,5.4,19,0.00,,,0.00,WeatherDisplay:10.36,2013-08-27 22:47:00,
2013-08-27 17:52:00,92.8,45.9,29.94,NE,40,3.6,4.5,20,0.00,,,0.00,WeatherDisplay:10.36,2013-08-27 22:52:00,
2013-08-27 17:57:00,92.8,47.2,29.94,NE,38,5.8,5.8,21,0.00,,,0.00,WeatherDisplay:10.36,2013-08-27 22:57:00,
2013-08-27 18:02:00,92.7,47.0,29.94,NE,43,6.7,6.7,21,0.00,,,0.00,WeatherDisplay:10.36,2013-08-27 23:02:00,
2013-08-27 18:07:00,92.5,46.9,29.94,NE,42,6.3,6.3,21,0.00,,,0.00,WeatherDisplay:10.36,2013-08-27 23:07:00,
2013-08-27 18:12:00,92.3,45.4,29.94,NE,40,4.5,4.5,20,0.00,,,0.00,WeatherDisplay:10.36,2013-08-27 23:12:00,
2013-08-27 18:17:00,92.3,45.4,29.94,NE,40,4.5,4.5,20,0.00,,,0.00,WeatherDisplay:10.36,2013-08-27 23:17:00,
2013-08-27 18:22:00,92.1,45.3,29.94,NE,41,4.5,4.5,20,0.00,,,0.00,WeatherDisplay:10.36,2013-08-27 23:22:00,
2013-08-27 18:27:00,91.9,45.1,29.94,NE,42,5.4,5.4,20,0.00,,,0.00,WeatherDisplay:10.36,2013-08-27 23:27:00,
2013-08-27 18:32:00,91.8,45.0,29.94,NE,41,6.3,0.0,20,0.00,,,0.00,WeatherDisplay:10.36,2013-08-27 23:32:00,
2013-08-27 18:37:00,91.4,44.7,29.94,NE,43,4.5,4.5,20,0.00,,,0.00,WeatherDisplay:10.36,2013-08-27 23:37:00,
2013-08-27 18:42:00,91.2,44.5,29.94,NE,40,4.6,4.6,20,0.00,,,0.00,WeatherDisplay:10.36,2013-08-27 23:42:00,
2013-08-27 18:47:00,91.0,44.4,29.94,NE,38,5.4,0.0,20,0.00,,,0.00,WeatherDisplay:10.36,2013-08-27 23:47:00,
2013-08-27 18:52:00,90.7,45.4,29.94,NE,38,0.0,2.7,21,0.00,,,0.00,WeatherDisplay:10.36,2013-08-27 23:52:00,
2013-08-27 18:57:00,90.5,45.2,29.94,NE,39,3.5,3.5,21,0.00,,,0.00,WeatherDisplay:10.36,2013-08-27 23:57:00,
2013-08-27 19:02:00,90.3,46.3,29.94,NE,39,3.6,3.6,22,0.00,,,0.00,WeatherDisplay:10.36,2013-08-28 00:02:00,
2013-08-27 19:07:00,90.1,49.6,29.94,NE,39,0.0,0.0,25,0.00,,,0.00,WeatherDisplay:10.36,2013-08-28 00:07:00,
2013-08-27 19:12:00,90.0,49.4,29.94,NE,40,2.7,2.7,25,0.00,,,0.00,WeatherDisplay:10.36,2013-08-28 00:12:00,
2013-08-27 19:17:00,89.8,49.3,29.94,NE,39,0.0,2.7,25,0.00,,,0.00,WeatherDisplay:10.36,2013-08-28 00:17:00,
2013-08-27 19:22:00,89.8,50.3,29.94,NE,40,3.5,3.5,26,0.00,,,0.00,WeatherDisplay:10.36,2013-08-28 00:22:00,
2013-08-27 19:27:00,89.6,51.2,29.94,NE,42,3.6,0.0,27,0.00,,,0.00,WeatherDisplay:10.36,2013-08-28 00:27:00,
2013-08-27 19:32:00,89.4,51.0,29.94,NE,38,0.0,0.0,27,0.00,,,0.00,WeatherDisplay:10.36,2013-08-28 00:32:00,
2013-08-27 19:37:00,89.2,49.9,29.94,NE,41,0.0,0.0,26,0.00,,,0.00,WeatherDisplay:10.36,2013-08-28 00:37:00,
2013-08-27 19:42:00,89.1,50.7,29.94,NE,37,0.0,2.7,27,0.00,,,0.00,WeatherDisplay:10.36,2013-08-28 00:42:00,
2013-08-27 19:47:00,88.9,50.6,29.94,NE,38,0.0,0.0,27,0.00,,,0.00,WeatherDisplay:10.36,2013-08-28 00:47:00,
2013-08-27 19:52:00,88.3,51.1,29.94,NE,40,0.0,0.0,28,0.00,,,0.00,WeatherDisplay:10.36,2013-08-28 00:52:00,
2013-08-27 19:57:00,88.2,50.9,29.94,NE,40,0.0,0.0,28,0.00,,,0.00,WeatherDisplay:10.36,2013-08-28 00:57:00,
2013-08-27 20:02:00,87.8,50.6,29.94,NE,41,0.0,0.0,28,0.00,,,0.00,WeatherDisplay:10.36,2013-08-28 01:02:00,
2013-08-27 20:07:00,87.4,50.3,29.94,NE,39,0.0,0.0,28,0.00,,,0.00,WeatherDisplay:10.36,2013-08-28 01:07:00,
2013-08-27 20:12:00,87.1,50.0,29.94,NE,40,4.0,4.0,28,0.00,,,0.00,WeatherDisplay:10.36,2013-08-28 01:12:00,
2013-08-27 20:17:00,86.9,50.8,29.94,NE,40,0.0,0.0,29,0.00,,,0.00,WeatherDisplay:10.36,2013-08-28 01:17:00,
2013-08-27 20:22:00,86.7,50.7,29.94,NE,39,0.0,0.0,29,0.00,,,0.00,WeatherDisplay:10.36,2013-08-28 01:22:00,
2013-08-27 20:27:00,86.4,50.3,29.94,NE,40,0.0,0.0,29,0.00,,,0.00,WeatherDisplay:10.36,2013-08-28 01:27:00,
2013-08-27 20:32:00,86.2,51.1,29.94,NE,39,0.0,0.0,30,0.00,,,0.00,WeatherDisplay:10.36,2013-08-28 01:32:00,
2013-08-27 20:38:00,85.8,50.8,29.94,NE,40,0.0,0.0,30,0.00,,,0.00,WeatherDisplay:10.36,2013-08-28 01:38:00,
2013-08-27 20:43:00,85.6,50.6,29.94,NE,39,0.0,0.0,30,0.00,,,0.00,WeatherDisplay:10.36,2013-08-28 01:43:00,
2013-08-27 20:48:00,85.5,50.5,29.97,NE,40,0.0,0.0,30,0.00,,,0.00,WeatherDisplay:10.36,2013-08-28 01:48:00,
2013-08-27 20:54:00,85.1,51.1,29.97,NE,40,0.0,0.0,31,0.00,,,0.00,WeatherDisplay:10.36,2013-08-28 01:54:00,
2013-08-27 20:59:00,84.9,51.8,29.97,NE,41,3.6,3.6,32,0.00,,,0.00,WeatherDisplay:10.36,2013-08-28 01:59:00,
2013-08-27 21:04:00,84.7,51.6,29.97,NE,41,3.6,0.0,32,0.00,,,0.00,WeatherDisplay:10.36,2013-08-28 02:04:00,
2013-08-27 21:10:00,84.4,51.3,29.97,NE,43,4.6,4.6,32,0.00,,,0.00,WeatherDisplay:10.36,2013-08-28 02:10:00,
2013-08-27 21:16:00,84.2,51.1,29.97,NE,38,4.0,4.0,32,0.00,,,0.00,WeatherDisplay:10.36,2013-08-28 02:16:00,
2013-08-27 21:21:00,84.0,51.8,29.97,NE,40,0.0,0.0,33,0.00,,,0.00,WeatherDisplay:10.36,2013-08-28 02:21:00,
2013-08-27 21:27:00,83.8,51.7,29.97,NE,41,0.0,0.0,33,0.00,,,0.00,WeatherDisplay:10.36,2013-08-28 02:27:00,
2013-08-27 21:32:00,83.7,51.5,29.97,NE,40,4.0,0.0,33,0.00,,,0.00,WeatherDisplay:10.36,2013-08-28 02:32:00,
2013-08-27 21:37:00,83.5,52.2,29.97,NE,37,3.1,3.1,34,0.00,,,0.00,WeatherDisplay:10.36,2013-08-28 02:37:00,
2013-08-27 21:42:00,83.5,52.2,29.97,NE,38,3.5,3.5,34,0.00,,,0.00,WeatherDisplay:10.36,2013-08-28 02:42:00,
2013-08-27 21:47:00,83.3,52.8,29.97,NE,40,3.1,3.6,35,0.00,,,0.00,WeatherDisplay:10.36,2013-08-28 02:47:00,
2013-08-27 21:52:00,83.1,51.8,29.97,NE,38,0.0,0.0,34,0.00,,,0.00,WeatherDisplay:10.36,2013-08-28 02:52:00,
2013-08-27 21:58:00,83.1,52.6,29.97,NE,41,3.1,0.0,35,0.00,,,0.00,WeatherDisplay:10.36,2013-08-28 02:58:00,
2013-08-27 22:03:00,82.9,52.5,29.97,NE,38,3.6,3.6,35,0.00,,,0.00,WeatherDisplay:10.36,2013-08-28 03:03:00,
2013-08-27 22:08:00,82.8,52.3,29.97,NE,39,3.6,3.6,35,0.00,,,0.00,WeatherDisplay:10.36,2013-08-28 03:08:00,
2013-08-27 22:13:00,82.8,52.3,29.97,NE,41,4.5,0.0,35,0.00,,,0.00,WeatherDisplay:10.36,2013-08-28 03:13:00,
2013-08-27 22:18:00,82.6,52.2,29.97,NE,41,3.1,0.0,35,0.00,,,0.00,WeatherDisplay:10.36,2013-08-28 03:18:00,
2013-08-27 22:23:00,82.4,52.8,29.97,NE,42,5.8,5.8,36,0.00,,,0.00,WeatherDisplay:10.36,2013-08-28 03:23:00,
2013-08-27 22:28:00,82.2,52.6,29.97,NE,42,5.8,5.8,36,0.00,,,0.00,WeatherDisplay:10.36,2013-08-28 03:28:00,
2013-08-27 22:34:00,82.0,52.4,29.97,NE,42,0.0,0.0,36,0.00,,,0.00,WeatherDisplay:10.36,2013-08-28 03:34:00,
2013-08-27 22:39:00,81.9,52.3,29.97,NE,43,3.6,3.6,36,0.00,,,0.00,WeatherDisplay:10.36,2013-08-28 03:39:00,
2013-08-27 22:44:00,81.7,52.1,29.97,NE,39,5.8,5.8,36,0.00,,,0.00,WeatherDisplay:10.36,2013-08-28 03:44:00,
2013-08-27 22:50:00,81.5,52.7,29.97,NE,40,4.6,4.6,37,0.00,,,0.00,WeatherDisplay:10.36,2013-08-28 03:50:00,
2013-08-27 22:56:00,81.3,52.6,29.97,NE,40,4.9,4.9,37,0.00,,,0.00,WeatherDisplay:10.36,2013-08-28 03:56:00,
2013-08-27 23:01:00,81.1,53.1,29.97,NE,40,4.9,4.9,38,0.00,,,0.00,WeatherDisplay:10.36,2013-08-28 04:01:00,
2013-08-27 23:03:00,81.1,53.1,29.97,NE,39,5.8,5.8,38,0.00,,,0.00,WeatherDisplay:10.36,2013-08-28 04:03:00,
2013-08-27 23:06:00,81.1,53.1,29.97,NE,40,4.6,4.6,38,0.00,,,0.00,WeatherDisplay:10.36,2013-08-28 04:06:00,
2013-08-27 23:07:00,81.0,53.0,29.97,NE,39,0.0,4.0,38,0.00,,,0.00,WeatherDisplay:10.36,2013-08-28 04:07:00,
2013-08-27 23:11:00,80.8,53.5,29.97,NE,40,6.9,6.9,39,0.00,,,0.00,WeatherDisplay:10.36,2013-08-28 04:11:00,
2013-08-27 23:15:00,80.8,53.5,29.97,NE,41,3.6,3.6,39,0.00,,,0.00,WeatherDisplay:10.36,2013-08-28 04:15:00,
2013-08-27 23:20:00,80.6,53.4,29.97,NE,41,4.0,4.0,39,0.00,,,0.00,WeatherDisplay:10.36,2013-08-28 04:20:00,
2013-08-27 23:25:00,80.4,53.2,29.97,NE,39,4.9,4.9,39,0.00,,,0.00,WeatherDisplay:10.36,2013-08-28 04:25:00,
2013-08-27 23:30:00,80.2,53.0,29.97,NE,37,4.9,4.9,39,0.00,,,0.00,WeatherDisplay:10.36,2013-08-28 04:30:00,
2013-08-27 23:35:00,80.2,53.7,29.97,NE,43,6.3,6.3,40,0.00,,,0.00,WeatherDisplay:10.36,2013-08-28 04:35:00,
2013-08-27 23:40:00,80.1,53.6,29.97,NE,39,4.9,4.9,40,0.00,,,0.00,WeatherDisplay:10.36,2013-08-28 04:40:00,
2013-08-27 23:45:00,79.9,53.4,29.97,NE,39,5.8,5.8,40,0.00,,,0.00,WeatherDisplay:10.36,2013-08-28 04:45:00,
2013-08-27 23:50:00,79.9,53.4,29.97,NE,37,4.6,4.6,40,0.00,,,0.00,WeatherDisplay:10.36,2013-08-28 04:50:00,
2013-08-27 23:55:00,79.7,53.9,29.97,NE,41,5.8,5.8,41,0.00,,,0.00,WeatherDisplay:10.36,2013-08-28 04:55:00,